TimeCST,TemperatureF,Dew PointF,Humidity,Sea Level PressureIn,VisibilityMPH,Wind Direction,Wind SpeedMPH,Gust SpeedMPH,PrecipitationIn,Events,Conditions,WindDirDegrees,DateUTC
12:14 AM,-7.6,-11.2,84,30.18,10.0,Calm,Calm,-,N/A,,Mostly Cloudy,0,2012-12-21 06:14:00
12:34 AM,-5.8,-7.6,92,30.17,10.0,Calm,Calm,-,N/A,,Overcast,0,2012-12-21 06:34:00
12:54 AM,-4.0,-7.6,85,30.18,2.0,Calm,Calm,-,N/A,Snow,Light Snow,0,2012-12-21 06:54:00
1:15 AM,-2.2,-5.8,85,30.18,2.5,Calm,Calm,-,N/A,Snow,Light Snow,0,2012-12-21 07:15:00
1:35 AM,-0.4,-4.0,85,30.19,3.0,Calm,Calm,-,N/A,Snow,Light Snow,0,2012-12-21 07:35:00
1:55 AM,1.4,-2.2,85,30.20,4.0,Calm,Calm,-,N/A,Snow,Light Snow,0,2012-12-21 07:55:00
2:15 AM,1.4,-2.2,85,30.20,3.0,Calm,Calm,-,N/A,Snow,Light Snow,0,2012-12-21 08:15:00
2:35 AM,1.4,-2.2,85,30.20,2.5,Calm,Calm,-,N/A,Snow,Light Snow,0,2012-12-21 08:35:00
2:55 AM,1.4,-2.2,85,30.20,2.5,Calm,Calm,-,N/A,Snow,Light Snow,0,2012-12-21 08:55:00
3:15 AM,1.4,-0.4,92,30.20,2.5,Calm,Calm,-,N/A,Snow,Light Snow,0,2012-12-21 09:15:00
3:36 AM,3.2,-0.4,85,30.20,5.0,Calm,Calm,-,N/A,Snow,Light Snow,0,2012-12-21 09:36:00
3:55 AM,3.2,-0.4,85,30.21,4.0,Calm,Calm,-,N/A,Snow,Light Snow,0,2012-12-21 09:55:00
4:15 AM,3.2,1.4,92,30.21,5.0,Calm,Calm,-,N/A,Snow,Light Snow,0,2012-12-21 10:15:00
4:35 AM,3.2,1.4,92,30.22,7.0,NW,4.6,-,N/A,Snow,Light Snow,320,2012-12-21 10:35:00
5:15 AM,3.2,1.4,92,30.22,5.0,WNW,5.8,-,N/A,Snow,Light Snow,290,2012-12-21 11:15:00
5:35 AM,3.2,1.4,92,30.22,4.0,NW,3.5,-,N/A,Snow,Light Snow,310,2012-12-21 11:35:00
5:55 AM,3.2,1.4,92,30.23,5.0,Calm,Calm,-,N/A,Snow,Light Snow,0,2012-12-21 11:55:00
6:15 AM,3.2,1.4,92,30.23,2.5,Calm,Calm,-,N/A,Snow,Light Snow,0,2012-12-21 12:15:00
6:35 AM,3.2,1.4,92,30.23,4.0,Calm,Calm,-,N/A,Snow,Light Snow,0,2012-12-21 12:35:00
6:55 AM,3.2,1.4,92,30.23,4.0,Calm,Calm,-,N/A,Snow,Light Snow,0,2012-12-21 12:55:00
7:15 AM,3.2,1.4,92,30.23,5.0,Calm,Calm,-,N/A,Snow,Light Snow,0,2012-12-21 13:15:00
7:35 AM,3.2,1.4,92,30.23,5.0,Calm,Calm,-,N/A,Snow,Light Snow,0,2012-12-21 13:35:00
7:55 AM,3.2,1.4,92,30.24,10.0,Calm,Calm,-,N/A,,Overcast,0,2012-12-21 13:55:00
8:16 AM,3.2,1.4,92,30.24,4.0,Calm,Calm,-,N/A,Snow,Light Snow,0,2012-12-21 14:16:00
8:35 AM,3.2,1.4,92,30.24,1.0,Calm,Calm,-,N/A,Snow,Light Snow,0,2012-12-21 14:35:00
8:55 AM,3.2,1.4,92,30.24,2.5,Calm,Calm,-,N/A,Snow,Light Snow,0,2012-12-21 14:55:00
9:15 AM,3.2,1.4,92,30.24,5.0,Calm,Calm,-,N/A,Snow,Light Snow,0,2012-12-21 15:15:00
9:35 AM,5.0,1.4,85,30.24,5.0,Calm,Calm,-,N/A,Snow,Light Snow,0,2012-12-21 15:35:00
9:55 AM,6.8,3.2,85,30.24,5.0,Calm,Calm,-,N/A,Snow,Light Snow,0,2012-12-21 15:55:00
10:15 AM,6.8,3.2,85,30.24,7.0,Calm,Calm,-,N/A,Snow,Light Snow,0,2012-12-21 16:15:00
10:35 AM,6.8,3.2,85,30.24,7.0,Calm,Calm,-,N/A,Snow,Light Snow,0,2012-12-21 16:35:00
10:55 AM,6.8,3.2,85,30.23,7.0,SSE,3.5,-,N/A,Snow,Light Snow,160,2012-12-21 16:55:00
11:15 AM,8.6,5.0,85,30.23,4.0,Calm,Calm,-,N/A,Snow,Light Snow,0,2012-12-21 17:15:00
11:35 AM,10.4,6.8,85,30.24,0.8,Calm,Calm,-,N/A,Snow,Light Snow,0,2012-12-21 17:35:00
11:55 AM,12.2,6.8,79,30.22,1.8,Calm,Calm,-,N/A,Snow,Light Snow,0,2012-12-21 17:55:00
12:15 PM,12.2,5.0,73,30.22,1.5,Calm,Calm,-,N/A,Snow,Light Snow,0,2012-12-21 18:15:00
12:35 PM,12.2,5.0,73,30.19,1.8,Calm,Calm,-,N/A,Snow,Light Snow,0,2012-12-21 18:35:00
12:54 PM,14.0,5.0,67,30.19,5.0,Calm,Calm,-,N/A,Snow,Light Snow,0,2012-12-21 18:54:00
1:15 PM,12.2,6.8,79,30.19,7.0,Calm,Calm,-,N/A,Snow,Light Snow,0,2012-12-21 19:15:00
1:36 PM,15.8,6.8,68,30.18,10.0,Calm,Calm,-,N/A,Snow,Light Snow,0,2012-12-21 19:36:00
1:56 PM,14.0,8.6,79,30.17,10.0,Calm,Calm,-,N/A,,Clear,0,2012-12-21 19:56:00
2:15 PM,14.0,6.8,73,30.17,10.0,Calm,Calm,-,N/A,,Clear,0,2012-12-21 20:15:00
2:35 PM,14.0,5.0,67,30.17,10.0,Calm,Calm,-,N/A,,Clear,0,2012-12-21 20:35:00
2:55 PM,12.2,5.0,73,30.18,10.0,SW,3.5,-,N/A,,Clear,230,2012-12-21 20:55:00
3:15 PM,12.2,6.8,79,30.17,10.0,SW,4.6,-,N/A,,Clear,220,2012-12-21 21:15:00
3:34 PM,10.4,3.2,73,30.16,10.0,Calm,Calm,-,N/A,,Clear,0,2012-12-21 21:34:00
3:53 PM,8.6,3.2,79,30.17,10.0,SSW,5.8,-,N/A,,Clear,210,2012-12-21 21:53:00
4:12 PM,8.6,1.4,73,30.17,10.0,SSW,4.6,-,N/A,,Clear,200,2012-12-21 22:12:00
4:35 PM,3.2,-0.4,85,30.16,10.0,South,4.6,-,N/A,,Clear,170,2012-12-21 22:35:00
4:55 PM,3.2,1.4,92,30.16,10.0,Calm,Calm,-,N/A,,Clear,0,2012-12-21 22:55:00
5:15 PM,3.2,-0.4,85,30.15,10.0,Calm,Calm,-,N/A,,Clear,0,2012-12-21 23:15:00
5:35 PM,1.4,-2.2,85,30.14,10.0,SE,3.5,-,N/A,,Clear,140,2012-12-21 23:35:00
5:55 PM,3.2,1.4,92,30.13,10.0,SE,3.5,-,N/A,,Clear,140,2012-12-21 23:55:00
6:13 PM,3.2,-0.4,85,30.13,10.0,Calm,Calm,-,N/A,,Clear,0,2012-12-22 00:13:00
6:35 PM,1.4,-2.2,85,30.12,10.0,Calm,Calm,-,N/A,,Clear,0,2012-12-22 00:35:00
6:55 PM,3.2,-0.4,85,30.10,10.0,SE,4.6,-,N/A,,Clear,140,2012-12-22 00:55:00
7:15 PM,3.2,-0.4,85,30.10,10.0,Calm,Calm,-,N/A,,Clear,0,2012-12-22 01:15:00
7:35 PM,3.2,-0.4,85,30.11,10.0,Calm,Calm,-,N/A,,Clear,0,2012-12-22 01:35:00
7:55 PM,1.4,-0.4,92,30.10,10.0,Calm,Calm,-,N/A,,Clear,0,2012-12-22 01:55:00
8:16 PM,3.2,1.4,92,30.10,10.0,South,5.8,-,N/A,,Clear,170,2012-12-22 02:16:00
8:35 PM,3.2,-0.4,85,30.09,10.0,Calm,Calm,-,N/A,,Clear,0,2012-12-22 02:35:00
8:55 PM,1.4,-0.4,92,30.08,10.0,South,6.9,-,N/A,,Clear,180,2012-12-22 02:55:00
9:15 PM,3.2,1.4,92,30.08,10.0,South,5.8,-,N/A,,Clear,170,2012-12-22 03:15:00
9:35 PM,5.0,1.4,85,30.08,10.0,South,4.6,-,N/A,,Clear,190,2012-12-22 03:35:00
9:56 PM,5.0,1.4,85,30.07,10.0,South,8.1,-,N/A,,Clear,180,2012-12-22 03:56:00
10:15 PM,5.0,1.4,85,30.06,10.0,South,5.8,-,N/A,,Clear,170,2012-12-22 04:15:00
10:35 PM,6.8,3.2,85,30.06,10.0,SSE,6.9,-,N/A,,Clear,160,2012-12-22 04:35:00
10:55 PM,6.8,3.2,85,30.06,10.0,SSE,6.9,-,N/A,,Clear,160,2012-12-22 04:55:00
11:15 PM,8.6,5.0,85,30.05,10.0,SSE,9.2,-,N/A,,Clear,160,2012-12-22 05:15:00
11:36 PM,8.6,5.0,85,30.05,10.0,SSE,8.1,-,N/A,,Clear,160,2012-12-22 05:36:00
11:55 PM,10.4,6.8,85,30.04,10.0,South,9.2,-,N/A,,Clear,170,2012-12-22 05:55:00